FENGYUN 1C DEB

Satellite information

Favourite Embed

Satellite Type and Status

DEBRISIN ORBIT

Key statistics

Satellite FENGYUN 1C DEB at a glance.

Uptime

9556

Days in orbit

Revolutions

≈ 14.8

Per day

Orbit

SSO

Sun Synchronous Orbit

Inclination

98.4

Latest

Satellite identification and parameters

Extended collection of information and parameters for FENGYUN 1C DEB.

Object identification

Identified? True

Debris? True

Object name: FENGYUN 1C DEB

International designator: 1999-025CSF

Object number (NORAD): 32137

Object ID (CCSDS): 32137

Country: PEOPLES REPUBLIC OF CHINA (PRC)

Current information (Y/N): Y

RCS size: SMALL

Orbital parameters

Period: 97.51 minutes

Inclination: 98.4267 deg

SMA: 7017.672 km

Apoapsis: 779.948 km

Periapsis: 499.126 km

RAAN: 301.8086 deg

Eccentricy: 0.0200082

Argument of periapsis: 197.9788 deg

Mean anomaly: 161.4274 deg

Mean motion: 14.76770952 rev/day

Mean motion (dot): 0.00012653 rev/day2

B* drag term: 0.0013005 1/REarth

Two-line elements (TLE)

Creation date: July 2, 2025, 3:06 p.m.

Reference frame: TEME

Reference center: EARTH

Epoch: July 1, 2025, 1:06 p.m. UTC

TLE line 0: 0 FENGYUN 1C DEB

TLE line 1: 1 32137U 99025CSF 25182.54630572 .00012653 00000-0 13005-2 0 9999

TLE line 2: 2 32137 98.4267 301.8086 0200082 197.9788 161.4274 14.76770952948061

Live tracking on map

Real-time ground track for satellite FENGYUN 1C DEB.

In-orbit conjunctions

A list of the most updated potential collisions computed for object FENGYUN 1C DEB.

Target Orbit TCA Probability of collision Miss distance Type
CZ-6A DEB LEO 2025-02-07 10:59:04 0.0001826633 124.0 (m) DEBRIS
CZ-6A DEB LEO 2025-02-01 18:33:31 0.0001314902 206.0 (m) DEBRIS

Associated space launch

Chinese polar orbiting meteorological satellite

FENGYUN 1C DEB was lifted into orbit during the mission ‘Long March 4B | Feng Yun 1C’, on board a Long March 4B space rocket.

The launch took place on May 10, 1999, 1:33 a.m. from Launch Complex 7.

For more information about the launch, click the button.

Launch to space Long March 4B | Feng Yun 1C
Long March 4B | Feng Yun 1C

Agency: N/A

Status: Launch Successful

Launch date: May 10, 1999, 1:33 a.m. UTC

Rocket: Long March 4B

Launch pad: Launch Complex 7

Location: Taiyuan Satellite Launch Center, People's Republic of China

...

Latest news about this satellite

There are no fresh news available about this satellite. Check back as we update our databases every day.


Newsletter sign-up

Weekly statistics, charts and insights to help you stay on top of the space industry.